Погода Новая Ладога

Хотите узнать прогноз погоды Новая Ладога? Тогда Вам сюда: Погода Новая Ладога

Поиск расширенной информации на нашем сайте:

Полезная информация:

Новости сайта



02.01.2020
Опубликован Долгосрочный прогноз погоды по городам России и ближнего зарубежья на январь 2020 года.
Карты: Прогноз на январь и февраль 2020 года, Сравнение прогнозируемой аномалии приземной температуры воздуха на январь 2020 года по разным моделям.




Погода Новая Ладога - сегодня

Время (UTC), дата Ветер
(°,м/с) 
Видим.   Явления Облачность Т
(°С)
Тd
(°С)
f(%) Тe
(°С)
Pmin
(гПа)
dP
(гПа)
Po
(мм)
O2
(г/м3)
Тmin Tmax R s Состояние
почвы
18 29.11.20 120 (ЮВ) 10 км    10/10 400 м 
[St]
-1.3 -3.2 87 -3  1029.6  -0.8  771  313    -1       
21 29.11.20 100 (В) 10 км    10/10 450 м 
[Sc]
-0.8 -2.6 88 -2  1028.3  -1.3  770  312           
00 30.11.20 110 (В) 4000 м  слаб. ливневой снег  10/10 360 м кучево-дожд. 
[Cb cap]
-0.4 -1.6 92 -1  1026.7  -1.6  769  311           
03 30.11.20 120 (ЮВ) 10 км  слаб. ливневой снег  10/10 300 м кучево-дожд. 
[Cb cap]
+0.8 -0.4 92 -1  1025.4  -1.3  768  309  -1.5    0.1     
06 30.11.20 130 (ЮВ) 10 км  {ливн. осадки}  10/10 480 м 
[Sc]
+1.7 +0.4 91 +1  1024.8  -0.6  768  307  -1.4    0.1     
09 30.11.20 150 (ЮВ) 10 км  слаб. ливневой дождь  9/9 480 м кучево-дожд. 
[Cb cap]
+2 +1.1 94 +1  1024  -0.8  767  307           
12 30.11.20 130 (ЮВ) 10 км  слаб. ливневой дождь  10/10 300 м кучево-дожд. 
[Cb cap]
+1.8 +0.9 94 +3  1022.7  -1.3  766  307           
15 30.11.20 140 (ЮВ) 10 км  слаб. ливневой дождь  10/10 180 м кучево-дожд. 
[Cb cap]
+1 +0.4 96 +2  1021.4  -1.3  765  307      0.9     
18 30.11.20 190 (Ю) 4000 м  слаб. ливневой снег  9/9 300 м кучево-дожд. 
[Cb cap]
+0.1 -0.2 98 +1  1020.9  -0.5  765  308    +2.2     
21 30.11.20 160 (Ю) 10 км  {ливн. осадки}  9/9 720 м кучево-дожд. 
[Cb cap]
+0.3 -1 91 -1  1020.8  -0.1  765  308           
00 01.12.20 160 (Ю) 10 км  {ливн. осадки}  9/9 480 м 
[Sc]
-0.2 -1.6 90 -2  1020.8  765  309           
03 01.12.20 170 (Ю) 10 км  слаб. ливневой снег  9/9 400 м кучево-дожд. 
[Cb cap]
-0.5 -1.6 92 -2  1020.4  -0.4  764  309  -0.6       
06 01.12.20 180 (Ю) 10 км  в посл. час ливневой снег  9/9 400 м кучево-дожд. 
[Cb cap]
-0.1 -1 94 -2  1021.1  0.7  765  308  -0.6    0.7  равномерный
сухой снег
100% 
09 01.12.20 200 (Ю) 10 км  {ливн. осадки}  9/9 700 м 
[Sc]
+0.5 -0.5 93 1022.8  1.7  766  308           
12 01.12.20 210 (ЮЗ) 10 км  {ливн. осадки}  10/10 400 м 
[St]
+0.9 -0.3 92 -1  1024.3  1.5  767  308           
15 01.12.20 200 (Ю) 10 км    10/10 400 м 
[St]
+0.9 -0.5 90 1025.7  1.4  768  309      0.4     
21 01.12.20 200 (Ю) 4000 м  слаб. ливневой снег  9/9 660 м кучево-дожд. 
[Cb cap]
+0.6 -0.5 92 -1  1028.8  1.5  771  310           
00 02.12.20 200 (Ю) 10 км  {ливн. осадки}  10/10 300 м 
[St]
+0.8 -0.1 94 -1  1030.1  1.3  772  310           
03 02.12.20 200 (Ю) 10 км    10/10 540 м 
[Sc]
+1 +0.1 94 1030.6  0.5  772  310  +0.5    0.7     
06 02.12.20 200 (Ю) 10 км    9/9 480 м 
[Sc]
+1.1 +0.1 93 1031.5  0.9  773  310  +0.5    0.6  <0.5  мокрый или
старый снег
10-40% 
09 02.12.20 210 (ЮЗ) 10 км    9/9 630 м 
[Sc]
+1.1 -0.4 90 1032.5  774  311           
12 02.12.20 200 (Ю) 10 км    4/1 600 м средняя 
[Sc|Ac lent]
+0.2 -0.9 92 -1  1032.5  774  312           
15 02.12.20 190 (Ю) 10 км    10/10 300 м 
[St]
+0.3 -0.9 92 1032.4  -0.1  773  311           
18 02.12.20 190 (Ю) 10 км    10/10 270 м 
[St]
-0.8 -1.8 93 -3  1032.1  -0.3  773  313    +1.2       
21 02.12.20 170 (Ю) 10 км    10/10 240 м 
[St]
-1.1 -2.1 93 -3  1031.7  -0.4  773  313           
Время (UTC), дата Ветер
(°,м/с) 
Видим.   Явления Облачность Т
(°С)
Тd
(°С)
f(%) Тe
(°С)
Pmin
(гПа)
dP
(гПа)
Po
(мм)
O2
(г/м3)
Тmin Tmax R s Состояние
почвы

Для получения пояснительной информации подведите курсор к названию столбца.

ПОГОДА Новая Ладога - архив

Всё, что Вы хотите узнать о погоде Новая Ладога - удобно и подробно!

Выберите нужную дату (начиная с 1 января 2019* года) и нажмите кнопку "Найти".
Будут отображены архивные сводки погоды по пункту Новая Ладога, начиная с указанной даты.


Отображать данные в формате CSV (для использования в таблицах Excel)


Внимание! Наш архив погоды предназначен исключительно для личного некоммерческого использования в познавательных целях. Если Вам необходимы официальные справки о состоянии погоды (для производственных, юридических, коммерческих и т.п. целей), обращайтесь в органы Росгидромета.

*Примечание: данная дата относится к архиву по метеостанциям СССР (Россия, СНГ, Балтия).
Архив по метеостанциям Зарубежной Европы и Азии (кроме Китая) хранится 10 дней, по другим регионам земного шара (Китай, Африка, Америка, Австралия, Океания) - 1 день.

Новая Ладога - район местоположения метеостанции


Название, широта, долгота, высота метеостанции:
Новая Ладога 60.1°ш. 32.3°д. 9 м над ур. моря [Российская Федерация]

Дополнительная информация

В oтличие oт бoльшинства пoгoдных сайтoв мы публикуем пoдрoбную метеoинфoрмацию в детальнoм прoфессиoнальнoм фoрмате.

Характеристики температуры и влажнoсти вoздуха измеряются на высoте 2 м в тени вдали oт зданий и деревьев.
Скoрoсть ветра измеряется на высoте 10 м (на урoвне рoста челoвека скoрoсть ветра ниже в 1.5-2 раза). Если метеoстанция нахoдится в гoрoде или в лесу, тo скoрoсть ветра занижена на 2-4 м/с пo сравнению с oткрытым местoм. Скoрoсть ветра над акватoриями крупных рек и oзёр, а также на вершинах хoлмoв на 2-5 м/с выше, чем в oбычных услoвиях.
Атмoсфернoе давление в разных тoчках местнoсти мoжет значительнo oтличаться oт давления на метеoстанции, в зависимoсти oт услoвий рельефа (при пoдъёме на 10 м давление пoнижается примернo на 1 мм рт.ст.).